Custer, SD

12:55 PM MDT on June 28, 2017 (GMT -0600)
Custer County

Weather History for KCUT - February, 2014

Change the Weather History Date:

Wednesday, February 5, 2014

  Actual Average Record
Temperature  
Mean Temperature -11 °F 24 °F  
Max Temperature -1 °F 35 °F 60 °F (1963)
Min Temperature -22 °F 14 °F -30 °F (1982)
Degree Days  
Heating Degree Days 76 41  
Month to date heating degree days 309 205  
Since 1 July heating degree days 4819 4940  
Cooling Degree Days 0 0  
Month to date cooling degree days 0 0  
Year to date cooling degree days 0 0  
Moisture  
Dew Point -20 °F    
Average Humidity 73    
Maximum Humidity 81    
Minimum Humidity 64    
Precipitation  
Precipitation 0.01 in 0.02 in 0.31 in (1976)
Month to date precipitation 0.19 0.10  
Year to date precipitation 0.64 0.43  
Sea Level Pressure  
Sea Level Pressure 30.44 in    
Wind  
Wind Speed 4 mph (WSW)    
Max Wind Speed 13 mph    
Max Gust Speed 18 mph    
Visibility 9 miles    
Events Snow    
T = Trace of Precipitation, MM = Missing Value Source: NWS Daily Summary

Daily Weather History Graph

Daily Weather History Graph

Search for Another Location

Airport or City:

Trip Planner

Search our weather history database for the weather conditions in past years. The results will help you decide how hot, cold, wet, or windy it might be!

Date:

Astronomy

Feb. 05, 2014 Rise Set
Actual Time 7:06 AM MST 5:11 PM MST
Civil Twilight 6:36 AM MST 5:41 PM MST
Nautical Twilight 6:02 AM MST 6:15 PM MST
Astronomical Twilight 5:28 AM MST 6:48 PM MST
Moon 10:08 AM MST (2/5) No Moon Set
Length of Visible Light 11h 05m
Length of Day
10h 04m
Waxing Crescent, 40% of the Moon is Illuminated
Feb 5
Waxing Crescent
Feb 6
First Quarter
Feb 14
Full
Feb 22
Last Quarter
Mar 1
New

Hourly Weather History & Observations

Time (MST) Temp. Windchill Dew Point Humidity Pressure Visibility Wind Dir Wind Speed Gust Speed Precip Events Conditions
12:53 AM -13.0 °F - -18.0 °F 78% 30.61 in 10.0 mi Calm Calm - N/A   Clear
1:17 AM -14.1 °F - -18.9 °F 79% 30.20 in 10.0 mi Calm Calm - N/A   Mostly Cloudy
1:50 AM -14.8 °F - -18.4 °F 84% 30.20 in 10.0 mi Calm Calm - N/A   Scattered Clouds
1:53 AM -15.0 °F - -20.0 °F 78% 30.62 in 10.0 mi Calm Calm - N/A   Partly Cloudy
2:53 AM -17.0 °F -29.7 °F -22.0 °F 78% 30.65 in 10.0 mi WNW 4.6 mph - N/A   Partly Cloudy
3:53 AM -20.0 °F -35.3 °F -25.1 °F 78% 30.67 in 10.0 mi NW 5.8 mph - N/A   Clear
4:53 AM -18.9 °F -29.5 °F -24.0 °F 78% 30.68 in 10.0 mi NW 3.5 mph - N/A   Clear
5:34 AM -18.9 °F -32.0 °F -25.1 °F 74% 30.21 in 10.0 mi West 4.6 mph - N/A   Mostly Cloudy
5:53 AM -18.9 °F -32.0 °F -24.0 °F 78% 30.68 in 9.0 mi WSW 4.6 mph - N/A   Mostly Cloudy
6:01 AM -20.0 °F - -25.1 °F 78% 30.21 in 10.0 mi Calm Calm - N/A   Partly Cloudy
6:53 AM -18.9 °F - -24.0 °F 78% 30.69 in 10.0 mi Calm Calm - N/A   Clear
7:53 AM -18.9 °F -29.5 °F -26.0 °F 70% 30.70 in 10.0 mi North 3.5 mph - N/A   Clear
8:53 AM -9.9 °F - -14.1 °F 82% 30.66 in 10.0 mi Calm Calm - N/A   Clear
9:53 AM -6.0 °F - -13.0 °F 72% 30.63 in 10.0 mi Calm Calm - N/A   Clear
10:53 AM -5.1 °F -15.8 °F -15.0 °F 62% 30.63 in 10.0 mi SSW 4.6 mph - N/A   Clear
11:19 AM -5.1 °F -15.8 °F -14.1 °F 65% 30.23 in 10.0 mi South 4.6 mph - N/A   Mostly Cloudy
11:53 AM -5.1 °F -19.1 °F -14.1 °F 65% 30.62 in 10.0 mi West 6.9 mph - N/A   Overcast
12:53 PM -4.0 °F -20.2 °F -11.9 °F 69% 30.61 in 10.0 mi WSW 9.2 mph - N/A   Overcast
1:38 PM -0.9 °F - -11.0 °F 62% 30.17 in 10.0 mi North - - N/A   Overcast
1:53 PM -6.0 °F -20.1 °F -13.0 °F 72% 30.61 in 4.0 mi ESE 6.9 mph - N/A   Haze
2:08 PM -5.1 °F -20.4 °F -11.9 °F 72% 30.17 in 5.0 mi ESE 8.1 mph - N/A   Haze
2:53 PM -7.1 °F -22.8 °F -14.1 °F 72% 30.64 in 2.0 mi East 8.1 mph - 0.00 in Snow Light Snow
3:02 PM -8.0 °F -21.0 °F -14.1 °F 75% 30.18 in 1.5 mi East 5.8 mph - 0.00 in Snow Light Snow
3:53 PM -9.0 °F -25.2 °F -16.1 °F 71% 30.66 in 1.2 mi East 8.1 mph - 0.00 in Snow Light Snow
4:42 PM -11.0 °F -26.2 °F -17.0 °F 75% 30.19 in 2.0 mi East 6.9 mph - 0.01 in Snow Light Snow
4:53 PM -11.0 °F -24.6 °F -17.0 °F 75% 30.68 in 2.0 mi ESE 5.8 mph - 0.01 in Snow Light Snow
5:06 PM -11.0 °F -24.6 °F -17.0 °F 75% 30.19 in 3.0 mi East 5.8 mph - 0.00 in   Haze
5:53 PM -13.0 °F - -18.9 °F 75% 30.69 in 10.0 mi Calm Calm - 0.00 in   Scattered Clouds
6:33 PM -15.0 °F - -20.0 °F 78% 30.19 in 10.0 mi Calm Calm - N/A   Mostly Cloudy
6:49 PM -16.6 °F - -20.2 °F 84% 30.19 in 10.0 mi Calm Calm - N/A   Mostly Cloudy
6:53 PM -16.1 °F - -20.9 °F 79% 30.69 in 10.0 mi Calm Calm - N/A   Mostly Cloudy
7:41 PM -18.0 °F - -23.1 °F 78% 30.18 in 10.0 mi Calm Calm - N/A   Mostly Cloudy
7:53 PM -18.0 °F - -23.1 °F 78% 30.69 in 10.0 mi Calm Calm - N/A   Mostly Cloudy
8:53 PM -18.0 °F -28.5 °F -23.1 °F 78% 30.64 in 10.0 mi NW 3.5 mph - N/A   Mostly Cloudy
9:11 PM -20.0 °F -33.3 °F -25.1 °F 78% 30.16 in 10.0 mi West 4.6 mph - N/A   Scattered Clouds
9:18 PM -18.9 °F -29.5 °F -25.1 °F 74% 30.16 in 10.0 mi WNW 3.5 mph - N/A   Mostly Cloudy
9:36 PM -18.9 °F -29.5 °F -24.0 °F 78% 30.16 in 10.0 mi West 3.5 mph - N/A   Scattered Clouds
9:45 PM -20.9 °F -31.7 °F -26.0 °F 77% 30.16 in 10.0 mi SW 3.5 mph - N/A   Mostly Cloudy
9:53 PM -20.9 °F -34.3 °F -27.0 °F 73% 30.62 in 10.0 mi SSW 4.6 mph - N/A   Mostly Cloudy
10:22 PM -18.0 °F - -24.0 °F 74% 30.15 in 10.0 mi Calm Calm - N/A   Mostly Cloudy
10:53 PM -18.9 °F -29.5 °F -23.1 °F 81% 30.59 in 10.0 mi SW 3.5 mph - N/A   Scattered Clouds
11:09 PM -18.9 °F -29.5 °F -25.1 °F 74% 30.13 in 10.0 mi SSW 3.5 mph - N/A   Mostly Cloudy
11:53 PM -22.0 °F - -27.0 °F 77% 30.59 in 10.0 mi Calm Calm - N/A   Mostly Cloudy